Location: Bailleul
(50.3375°N, 2.8513°E)
Time: 19:56:27
(UTC+00:00)

Cosmos 2227 Rocket - Pass Details

Date: 19 April 2021
Orbit: 840 x 843 km, 71.0° (Epoch: 18 May)

Event Time Altitude Azimuth Distance (km) Brightness Sun altitude
Exits shadow 21:22:09 12° 205° (SSW) 2,331 4.2 -20.5°
Maximum altitude 21:27:27 85° 119° (ESE) 853 2.1 -21.0°
Drops below altitude 10° 21:33:09 10° 30° (NNE) 2,472 4.9 -21.6°
Sets 21:35:36 0° 30° (NNE) 3,410 5.7 -21.8°
